Flag for U.S.A. Weather past 2 weeks in Fort Wayne, Indiana, U.S.A.

Now
84 °F

Passing clouds.


Feels Like: 88 °F
Forecast: 65 / 85 °F
Wind: 6 mph from Southwest

Location: Fort Wayne International Airport

Current Time: Aug 31, 2015 at 7:58:24 PM

Latest Report: Aug 31, 2015 at 6:54 PM


Visibility: 10 mi

Pressure: 30.03 "Hg

Humidity: 61%

Dew point: 69 °F

Location of Fort WayneLocation

Historic Weather in Fort Wayne — Graph

°F

Fort Wayne temperature yesterday

Maximum temperature yesterday: 84 °F (at 3:54 PM)
Minimum temperature yesterday: 65 °F (at 6:54 AM)
Average temperature yesterday: 74 °F

Past Weeks' High & Low Weather Summary

 TemperatureHumidityPressure
High86 °F (Aug 31, 3:54 PM)97% (Aug 17, 6:54 AM)30.24 "Hg (Aug 17, 6:54 AM)
Low50 °F (Aug 27, 5:54 AM)42% (Aug 21, 12:54 PM)29.73 "Hg (Aug 19, 7:54 PM)
Average68 °F76%30.03 "Hg
* Reported Aug 16 6:54 PM — Aug 31 6:54 PM, Fort Wayne, Weather by CustomWeather, © 2015

Note: Actual official high and low records may vary slightly from our data, if they occured in-between our weather recording intervals... More about our weather records

Advertising

Fort Wayne weather history for previous 24 hours

 ConditionsComfort  
Time TempWeatherWind HumidityBarometerVisibility
6:54 PM
Mon, Aug 31
84 °FPassing clouds.6 mph61%30.03 "Hg10 mi
5:54 PM85 °FScattered clouds.7 mph55%30.03 "Hg10 mi
4:54 PM86 °FScattered clouds.7 mph55%30.03 "Hg10 mi
3:54 PM86 °FScattered clouds.8 mph55%30.05 "Hg10 mi
2:54 PM85 °FScattered clouds.5 mph57%30.06 "Hg10 mi
1:54 PM85 °FScattered clouds.6 mph61%30.08 "Hg10 mi
12:54 PM84 °FScattered clouds.7 mph63%30.10 "Hg10 mi
11:54 AM81 °FScattered clouds.6 mph72%30.11 "Hg9 mi
10:54 AM78 °FSunny.6 mph76%30.11 "Hg8 mi
9:54 AM73 °FSunny.6 mph84%30.10 "Hg7 mi
8:54 AM70 °FFog.6 mph90%30.09 "Hg4 mi
7:54 AM65 °FFog.5 mph97%30.08 "Hg3 mi
6:54 AM64 °FFog.3 mph97%30.06 "Hg2 mi
5:54 AM65 °FFog.No wind94%30.05 "Hg2 mi
4:54 AM65 °FFog.3 mph94%30.05 "Hg1 mi
3:54 AM65 °FFog.No wind97%30.04 "Hg2 mi
3:04 AM66 °FFog.3 mph93%30.06 "Hg2 mi
2:54 AM66 °FFog.3 mph93%30.04 "Hg2 mi
1:54 AM67 °FFog.3 mph93%30.04 "Hg3 mi
12:54 AM67 °FFog.No wind97%30.05 "Hg6 mi
11:54 PM
Sun, Aug 30
68 °FClear.No wind93%30.04 "Hg10 mi
10:54 PM70 °FClear.No wind90%30.04 "Hg10 mi
9:54 PM72 °FClear.No wind84%30.04 "Hg10 mi
8:54 PM74 °FPassing clouds.No wind79%30.02 "Hg10 mi
7:54 PM78 °FPassing clouds.5 mph74%30.01 "Hg10 mi
Weather by CustomWeather, © 2015

See weather overviewHow to use our weather pages